Location: Boquerón
(10.0687°N, 67.9212°W)
Time: 11:59:18
(UTC+00:00)

GPS 2-14 Rocket1 - Pass Details

Date: 29 May 2024
Orbit: 353 x 376 km, 20.7° (Epoch: 16 June)

Event Time Altitude Azimuth Distance (km) Brightness Sun altitude
Rises 23:06:47 0° 302° (WNW) 2,182 8.3 -4.8°
Reaches altitude 10° 23:09:06 10° 317° (NW) 1,328 6.1 -5.3°
Maximum altitude 23:11:37 24° 13° (NNE) 794 3.8 -5.9°
Drops below altitude 10° 23:14:07 10° 70° (ENE) 1,313 4.3 -6.5°
Enters shadow 23:15:12 - 79° (E) 1,695 4.8 -6.7°
